| time (UTC) | temp F | wind direction | speed MPH | gust MPH | rain 1hr in | rain 24hr in | rain mn in | humidity % | barometer mb |
| 20260906213341 | 91 | 197 | 3.0 | 5.0 | 0.00 | 0.00 | 0.00 | 32 | 1018.6 |
| 20260906212839 | 93 | 243 | 0.0 | 0.0 | 0.00 | 0.00 | 0.00 | 30 | 1018.5 |
| 20260906212334 | 93 | 152 | 4.0 | 7.0 | 0.00 | 0.00 | 0.00 | 30 | 1018.7 |
| 20260906211834 | 94 | 225 | 2.0 | 3.0 | 0.00 | 0.00 | 0.00 | 30 | 1018.8 |
| 20260906211330 | 93 | 244 | 1.0 | 1.0 | 0.00 | 0.00 | 0.00 | 31 | 1018.6 |
| 20260906210825 | 94 | 235 | 1.0 | 1.0 | 0.00 | 0.00 | 0.00 | 31 | 1018.8 |
| 20260906210324 | 94 | 210 | 2.0 | 3.0 | 0.00 | 0.00 | 0.00 | 30 | 1019.0 |
| 20260906205820 | 93 | 239 | 0.0 | 1.0 | 0.00 | 0.00 | 0.00 | 30 | 1018.9 |
| 20260906205316 | 93 | 328 | 3.0 | 3.0 | 0.00 | 0.00 | 0.00 | 30 | 1019.2 |
| 20260906204812 | 93 | 219 | 0.0 | 1.0 | 0.00 | 0.00 | 0.00 | 31 | 1019.2 |
| 20260906204310 | 94 | 19 | 4.0 | 7.0 | 0.00 | 0.00 | 0.00 | 30 | 1019.2 |
| 20260906203810 | 93 | 318 | 1.0 | 2.0 | 0.00 | 0.00 | 0.00 | 30 | 1019.2 |
| 20260906203306 | 94 | 301 | 1.0 | 2.0 | 0.00 | 0.00 | 0.00 | 30 | 1019.6 |
| 20260906202802 | 95 | 241 | 0.0 | 1.0 | 0.00 | 0.00 | 0.00 | 29 | 1019.2 |
| 20260906202301 | 94 | 301 | 2.0 | 3.0 | 0.00 | 0.00 | 0.00 | 29 | 1019.3 |
| 20260906201756 | 93 | 167 | 1.0 | 1.0 | 0.00 | 0.00 | 0.00 | 28 | 1019.4 |
| 20260906201256 | 93 | 220 | 1.0 | 1.0 | 0.00 | 0.00 | 0.00 | 29 | 1019.5 |
| 20260906200752 | 93 | 240 | 0.0 | 0.0 | 0.00 | 0.00 | 0.00 | 30 | 1019.4 |
| 20260906200247 | 93 | 288 | 0.0 | 1.0 | 0.00 | 0.00 | 0.00 | 30 | 1019.5 |
| 20260906195743 | 93 | 201 | 2.0 | 2.0 | 0.00 | 0.00 | 0.00 | 30 | 1019.8 |
| 20260906195239 | 92 | 250 | 2.0 | 3.0 | 0.00 | 0.00 | 0.00 | 31 | 1019.6 |
| 20260906194735 | 92 | 254 | 0.0 | 1.0 | 0.00 | 0.00 | 0.00 | 31 | 1019.8 |
| 20260906194230 | 91 | 265 | 1.0 | 2.0 | 0.00 | 0.00 | 0.00 | 31 | 1019.8 |
| 20260906193725 | 90 | 205 | 3.0 | 3.0 | 0.00 | 0.00 | 0.00 | 32 | 1020.1 |
| 20260906193225 | 89 | 196 | 3.0 | 5.0 | 0.00 | 0.00 | 0.00 | 33 | 1020.0 |
| 20260906192721 | 90 | 106 | 4.0 | 6.0 | 0.00 | 0.00 | 0.00 | 33 | 1020.0 |
| 20260906192216 | 90 | 220 | 1.0 | 1.0 | 0.00 | 0.00 | 0.00 | 32 | 1020.2 |
| 20260906191715 | 90 | 296 | 1.0 | 1.0 | 0.00 | 0.00 | 0.00 | 33 | 1020.2 |
| 20260906191210 | 89 | 224 | 1.0 | 1.0 | 0.00 | 0.00 | 0.00 | 33 | 1020.5 |
| 20260906190710 | 90 | 159 | 4.0 | 5.0 | 0.00 | 0.00 | 0.00 | 31 | 1020.3 |
| 20260906190204 | 90 | 247 | 0.0 | 0.0 | 0.00 | 0.00 | 0.00 | 33 | 1020.6 |
| 20260906185704 | 86 | 263 | 0.0 | 0.0 | 0.00 | 0.00 | 0.00 | 34 | 1020.7 |
| 20260906185202 | 88 | 80 | 1.0 | 2.0 | 0.00 | 0.00 | 0.00 | 34 | 1020.7 |
| 20260906184657 | 87 | 275 | 2.0 | 2.0 | 0.00 | 0.00 | 0.00 | 35 | 1020.9 |
| 20260906184153 | 88 | 162 | 2.0 | 2.0 | 0.00 | 0.00 | 0.00 | 34 | 1021.1 |
| 20260906183648 | 89 | 278 | 0.0 | 1.0 | 0.00 | 0.00 | 0.00 | 34 | 1021.4 |
| 20260906183144 | 88 | 251 | 0.0 | 1.0 | 0.00 | 0.00 | 0.00 | 35 | 1021.1 |
| 20260906182644 | 87 | 257 | 2.0 | 2.0 | 0.00 | 0.00 | 0.00 | 35 | 1021.5 |
| 20260906182140 | 86 | 270 | 2.0 | 2.0 | 0.00 | 0.00 | 0.00 | 37 | 1021.4 |
| 20260906181635 | 85 | 265 | 0.0 | 1.0 | 0.00 | 0.00 | 0.00 | 40 | 1021.5 |
| 20260906181131 | 85 | 273 | 1.0 | 2.0 | 0.00 | 0.00 | 0.00 | 40 | 1021.8 |
| 20260906180627 | 84 | 252 | 0.0 | 1.0 | 0.00 | 0.00 | 0.00 | 41 | 1021.8 |
| 20260906180127 | 84 | 264 | 3.0 | 3.0 | 0.00 | 0.00 | 0.00 | 40 | 1021.8 |
| 20260906175625 | 84 | 255 | 1.0 | 2.0 | 0.00 | 0.00 | 0.00 | 40 | 1022.0 |
| 20260906175120 | 83 | 235 | 1.0 | 1.0 | 0.00 | 0.00 | 0.00 | 42 | 1022.1 |
| 20260906174618 | 84 | 77 | 2.0 | 2.0 | 0.00 | 0.00 | 0.00 | 42 | 1022.4 |
| 20260906174113 | 82 | 255 | 0.0 | 0.0 | 0.00 | 0.00 | 0.00 | 44 | 1022.5 |
| 20260906173608 | 81 | 255 | 0.0 | 0.0 | 0.00 | 0.00 | 0.00 | 46 | 1022.5 |
| 20260906173104 | 82 | 265 | 0.0 | 0.0 | 0.00 | 0.00 | 0.00 | 45 | 1022.1 |
| 20260906172603 | 81 | 302 | 0.0 | 0.0 | 0.00 | 0.00 | 0.00 | 46 | 1022.7 |
| 20260906172059 | 80 | 301 | 0.0 | 1.0 | 0.00 | 0.00 | 0.00 | 48 | 1022.4 |
| 20260906171559 | 79 | 256 | 2.0 | 2.0 | 0.00 | 0.00 | 0.00 | 49 | 1022.7 |
| 20260906171054 | 79 | 258 | 4.0 | 5.0 | 0.00 | 0.00 | 0.00 | 49 | 1022.6 |
| 20260906170550 | 78 | 260 | 1.0 | 1.0 | 0.00 | 0.00 | 0.00 | 50 | 1022.8 |
| 20260906170049 | 80 | 272 | 2.0 | 3.0 | 0.00 | 0.00 | 0.00 | 48 | 1022.9 |
| 20260906165547 | 78 | 250 | 1.0 | 1.0 | 0.00 | 0.00 | 0.00 | 50 | 1022.9 |
| 20260906165047 | 78 | 237 | 1.0 | 2.0 | 0.00 | 0.00 | 0.00 | 50 | 1022.9 |
| 20260906164546 | 80 | 259 | 2.0 | 3.0 | 0.00 | 0.00 | 0.00 | 49 | 1022.9 |
| 20260906164042 | 79 | 193 | 2.0 | 2.0 | 0.00 | 0.00 | 0.00 | 49 | 1023.2 |
| 20260906163537 | 78 | 256 | 1.0 | 1.0 | 0.00 | 0.00 | 0.00 | 54 | 1023.2 |
| 20260906163033 | 79 | 343 | 0.0 | 1.0 | 0.00 | 0.00 | 0.00 | 51 | 1023.1 |
| 20260906162530 | 77 | 277 | 0.0 | 0.0 | 0.00 | 0.00 | 0.00 | 53 | 1022.8 |
| 20260906162025 | 75 | 300 | 0.0 | 0.0 | 0.00 | 0.00 | 0.00 | 54 | 1022.9 |
| 20260906161520 | 75 | 297 | 2.0 | 2.0 | 0.00 | 0.00 | 0.00 | 57 | 1023.1 |
| 20260906161019 | 77 | 257 | 1.0 | 2.0 | 0.00 | 0.00 | 0.00 | 56 | 1022.9 |
| 20260906160518 | 75 | 312 | 0.0 | 0.0 | 0.00 | 0.00 | 0.00 | 60 | 1022.8 |
| 20260906160017 | 74 | 301 | 0.0 | 1.0 | 0.00 | 0.00 | 0.00 | 62 | 1022.7 |
| 20260906155514 | 73 | 276 | 0.0 | 1.0 | 0.00 | 0.00 | 0.00 | 64 | 1022.9 |
| 20260906155010 | 74 | 273 | 0.0 | 0.0 | 0.00 | 0.00 | 0.00 | 64 | 1022.9 |
| 20260906154506 | 73 | 277 | 0.0 | 0.0 | 0.00 | 0.00 | 0.00 | 65 | 1023.1 |
| 20260906154004 | 73 | 251 | 0.0 | 1.0 | 0.00 | 0.00 | 0.00 | 67 | 1023.1 |
| 20260906153503 | 72 | 280 | 1.0 | 1.0 | 0.00 | 0.00 | 0.00 | 67 | 1022.8 |
| 20260906152958 | 71 | 276 | 0.0 | 2.0 | 0.00 | 0.00 | 0.00 | 68 | 1022.9 |
| 20260906152453 | 72 | 277 | 0.0 | 0.0 | 0.00 | 0.00 | 0.00 | 68 | 1023.2 |
| 20260906151952 | 71 | 264 | 2.0 | 2.0 | 0.00 | 0.00 | 0.00 | 69 | 1023.2 |
| 20260906151448 | 71 | 244 | 1.0 | 1.0 | 0.00 | 0.00 | 0.00 | 70 | 1023.2 |
| 20260906150943 | 71 | 236 | 2.0 | 2.0 | 0.00 | 0.00 | 0.00 | 69 | 1023.2 |
| 20260906150439 | 71 | 257 | 0.0 | 0.0 | 0.00 | 0.00 | 0.00 | 70 | 1023.2 |
| 20260906145938 | 69 | 244 | 1.0 | 1.0 | 0.00 | 0.00 | 0.00 | 72 | 1023.1 |
| 20260906145437 | 69 | 242 | 2.0 | 2.0 | 0.00 | 0.00 | 0.00 | 73 | 1023.2 |
| 20260906144932 | 69 | 252 | 1.0 | 2.0 | 0.00 | 0.00 | 0.00 | 73 | 1023.1 |
| 20260906144426 | 69 | 279 | 0.0 | 0.0 | 0.00 | 0.00 | 0.00 | 73 | 1023.2 |
| 20260906143922 | 69 | 276 | 0.0 | 0.0 | 0.00 | 0.00 | 0.00 | 74 | 1023.1 |
| 20260906143418 | 68 | 280 | 1.0 | 2.0 | 0.00 | 0.00 | 0.00 | 76 | 1022.8 |
| 20260906142914 | 67 | 262 | 0.0 | 0.0 | 0.00 | 0.00 | 0.00 | 77 | 1023.1 |
| 20260906142413 | 67 | 251 | 0.0 | 1.0 | 0.00 | 0.00 | 0.00 | 77 | 1022.9 |
| 20260906141908 | 66 | 261 | 0.0 | 0.0 | 0.00 | 0.00 | 0.00 | 79 | 1022.9 |
| 20260906141402 | 65 | 263 | 3.0 | 3.0 | 0.00 | 0.00 | 0.00 | 80 | 1022.9 |
| 20260906140902 | 64 | 252 | 1.0 | 2.0 | 0.00 | 0.00 | 0.00 | 81 | 1023.2 |
| 20260906140356 | 64 | 256 | 1.0 | 1.0 | 0.00 | 0.00 | 0.00 | 82 | 1023.2 |
| 20260906135854 | 64 | 249 | 1.0 | 2.0 | 0.00 | 0.00 | 0.00 | 83 | 1022.9 |
| 20260906135354 | 64 | 261 | 1.0 | 1.0 | 0.00 | 0.00 | 0.00 | 83 | 1022.9 |
| 20260906134850 | 63 | 218 | 2.0 | 3.0 | 0.00 | 0.00 | 0.00 | 83 | 1022.9 |
| 20260906134344 | 63 | 258 | 1.0 | 2.0 | 0.00 | 0.00 | 0.00 | 82 | 1023.1 |
| 20260906133840 | 62 | 255 | 0.0 | 0.0 | 0.00 | 0.00 | 0.00 | 82 | 1022.9 |
| 20260906133336 | 62 | 246 | 0.0 | 0.0 | 0.00 | 0.00 | 0.00 | 82 | 1022.5 |
| 20260906132832 | 62 | 246 | 0.0 | 0.0 | 0.00 | 0.00 | 0.00 | 82 | 1022.8 |
| 20260906132326 | 62 | 247 | 0.0 | 0.0 | 0.00 | 0.00 | 0.00 | 82 | 1022.8 |
| 20260906131822 | 61 | 247 | 0.0 | 0.0 | 0.00 | 0.00 | 0.00 | 82 | 1022.6 |
| 20260906131317 | 61 | 246 | 0.0 | 0.0 | 0.00 | 0.00 | 0.00 | 83 | 1022.6 |
| 20260906130814 | 60 | 247 | 0.0 | 0.0 | 0.00 | 0.00 | 0.00 | 84 | 1022.5 |
| 20260906130312 | 60 | 247 | 0.0 | 0.0 | 0.00 | 0.00 | 0.00 | 84 | 1022.6 |
| 20260906125811 | 60 | 248 | 0.0 | 0.0 | 0.00 | 0.00 | 0.00 | 84 | 1022.5 |
| 20260906125309 | 60 | 248 | 0.0 | 0.0 | 0.00 | 0.00 | 0.00 | 84 | 1022.7 |
| 20260906124804 | 60 | 248 | 0.0 | 0.0 | 0.00 | 0.00 | 0.00 | 84 | 1022.7 |
| 20260906124300 | 60 | 247 | 0.0 | 0.0 | 0.00 | 0.00 | 0.00 | 84 | 1022.4 |
| 20260906123758 | 60 | 247 | 0.0 | 0.0 | 0.00 | 0.00 | 0.00 | 83 | 1022.5 |
| 20260906123254 | 60 | 247 | 0.0 | 0.0 | 0.00 | 0.00 | 0.00 | 83 | 1022.6 |
| 20260906122753 | 60 | 248 | 0.0 | 0.0 | 0.00 | 0.00 | 0.00 | 83 | 1022.4 |
| 20260906122249 | 60 | 248 | 0.0 | 0.0 | 0.00 | 0.00 | 0.00 | 82 | 1022.5 |
| 20260906121745 | 60 | 247 | 0.0 | 0.0 | 0.00 | 0.00 | 0.00 | 82 | 1022.2 |
| 20260906121241 | 60 | 248 | 0.0 | 0.0 | 0.00 | 0.00 | 0.00 | 82 | 1022.4 |
| 20260906120736 | 60 | 249 | 0.0 | 0.0 | 0.00 | 0.00 | 0.00 | 81 | 1022.2 |
| 20260906120228 | 60 | 249 | 0.0 | 0.0 | 0.00 | 0.00 | 0.00 | 81 | 1022.4 |
| 20260906115723 | 60 | 249 | 0.0 | 0.0 | 0.00 | 0.00 | 0.00 | 79 | 1022.5 |
| 20260906115223 | 60 | 249 | 0.0 | 0.0 | 0.00 | 0.00 | 0.00 | 78 | 1022.4 |
| 20260906114723 | 61 | 245 | 0.0 | 1.0 | 0.00 | 0.00 | 0.00 | 77 | 1022.2 |
| 20260906114218 | 61 | 250 | 0.0 | 0.0 | 0.00 | 0.00 | 0.00 | 78 | 1022.7 |
| 20260906113713 | 61 | 250 | 0.0 | 0.0 | 0.00 | 0.00 | 0.00 | 77 | 1022.6 |
| 20260906113213 | 61 | 250 | 0.0 | 0.0 | 0.00 | 0.00 | 0.00 | 77 | 1022.4 |
| 20260906112712 | 61 | 250 | 0.0 | 0.0 | 0.00 | 0.00 | 0.00 | 76 | 1022.4 |
| 20260906112210 | 61 | 250 | 0.0 | 0.0 | 0.00 | 0.00 | 0.00 | 76 | 1022.2 |
| 20260906111709 | 61 | 250 | 0.0 | 0.0 | 0.00 | 0.00 | 0.00 | 76 | 1022.4 |
| 20260906111204 | 62 | 250 | 0.0 | 0.0 | 0.00 | 0.00 | 0.00 | 76 | 1022.1 |
| 20260906110659 | 62 | 250 | 0.0 | 0.0 | 0.00 | 0.00 | 0.00 | 76 | 1022.4 |
| 20260906110154 | 62 | 250 | 0.0 | 0.0 | 0.00 | 0.00 | 0.00 | 75 | 1022.6 |
| 20260906105654 | 62 | 248 | 0.0 | 0.0 | 0.00 | 0.00 | 0.00 | 74 | 1022.2 |
| 20260906105150 | 62 | 252 | 0.0 | 0.0 | 0.00 | 0.00 | 0.00 | 74 | 1022.4 |
| 20260906104649 | 62 | 260 | 0.0 | 1.0 | 0.00 | 0.00 | 0.00 | 75 | 1022.0 |
| 20260906104148 | 62 | 261 | 0.0 | 0.0 | 0.00 | 0.00 | 0.00 | 74 | 1021.9 |
| 20260906103646 | 62 | 261 | 0.0 | 0.0 | 0.00 | 0.00 | 0.00 | 74 | 1022.0 |
| 20260906103143 | 62 | 261 | 0.0 | 0.0 | 0.00 | 0.00 | 0.00 | 75 | 1021.9 |
| 20260906102643 | 62 | 261 | 0.0 | 0.0 | 0.00 | 0.00 | 0.00 | 73 | 1021.6 |
| 20260906102142 | 63 | 261 | 0.0 | 0.0 | 0.00 | 0.00 | 0.00 | 72 | 1021.6 |
| 20260906101643 | 63 | 261 | 0.0 | 0.0 | 0.00 | 0.00 | 0.00 | 72 | 1021.9 |
| 20260906101142 | 63 | 261 | 0.0 | 0.0 | 0.00 | 0.00 | 0.00 | 72 | 1021.9 |
| 20260906100638 | 64 | 261 | 0.0 | 0.0 | 0.00 | 0.00 | 0.00 | 71 | 1022.1 |
| 20260906100134 | 63 | 263 | 0.0 | 0.0 | 0.00 | 0.00 | 0.00 | 72 | 1021.8 |
| 20260906095634 | 63 | 264 | 0.0 | 0.0 | 0.00 | 0.00 | 0.00 | 73 | 1021.8 |
| 20260906095129 | 63 | 264 | 0.0 | 0.0 | 0.00 | 0.00 | 0.00 | 72 | 1021.8 |
| 20260906094628 | 63 | 264 | 0.0 | 0.0 | 0.00 | 0.00 | 0.00 | 72 | 1021.9 |
| 20260906094124 | 64 | 264 | 0.0 | 0.0 | 0.00 | 0.00 | 0.00 | 71 | 1021.8 |
| 20260906093620 | 64 | 264 | 0.0 | 0.0 | 0.00 | 0.00 | 0.00 | 71 | 1021.5 |
| 20260906093119 | 64 | 264 | 0.0 | 0.0 | 0.00 | 0.00 | 0.00 | 71 | 1022.0 |
| 20260906092614 | 64 | 264 | 0.0 | 0.0 | 0.00 | 0.00 | 0.00 | 71 | 1021.8 |
| 20260906092110 | 63 | 265 | 0.0 | 0.0 | 0.00 | 0.00 | 0.00 | 71 | 1021.9 |
| 20260906091606 | 63 | 265 | 0.0 | 0.0 | 0.00 | 0.00 | 0.00 | 71 | 1021.6 |
| 20260906091103 | 64 | 265 | 0.0 | 0.0 | 0.00 | 0.00 | 0.00 | 70 | 1021.6 |
| 20260906090602 | 64 | 261 | 0.0 | 0.0 | 0.00 | 0.00 | 0.00 | 70 | 1022.0 |
| 20260906085601 | 64 | 264 | 0.0 | 0.0 | 0.00 | 0.00 | 0.00 | 70 | 1021.4 |
| 20260906085056 | 64 | 264 | 0.0 | 0.0 | 0.00 | 0.00 | 0.00 | 69 | 1021.5 |
| 20260906084551 | 65 | 264 | 0.0 | 0.0 | 0.00 | 0.00 | 0.00 | 68 | 1021.8 |
| 20260906084049 | 65 | 264 | 0.0 | 0.0 | 0.00 | 0.00 | 0.00 | 67 | 1021.4 |
| 20260906083546 | 65 | 264 | 0.0 | 0.0 | 0.00 | 0.00 | 0.00 | 66 | 1021.5 |
| 20260906083045 | 66 | 265 | 0.0 | 0.0 | 0.00 | 0.00 | 0.00 | 65 | 1021.9 |
| 20260906082540 | 66 | 264 | 0.0 | 0.0 | 0.00 | 0.00 | 0.00 | 64 | 1021.9 |
| 20260906082036 | 66 | 256 | 0.0 | 0.0 | 0.00 | 0.00 | 0.00 | 64 | 1022.1 |
| 20260906081532 | 67 | 256 | 0.0 | 0.0 | 0.00 | 0.00 | 0.00 | 63 | 1022.1 |
| 20260906081027 | 67 | 256 | 0.0 | 0.0 | 0.00 | 0.00 | 0.00 | 62 | 1022.1 |
| 20260906080524 | 68 | 255 | 0.0 | 0.0 | 0.00 | 0.00 | 0.00 | 60 | 1021.9 |
| 20260906080020 | 68 | 246 | 0.0 | 0.0 | 0.00 | 0.00 | 0.00 | 59 | 1021.9 |
| 20260906075519 | 68 | 255 | 0.0 | 0.0 | 0.00 | 0.00 | 0.00 | 58 | 1021.9 |
| 20260906075014 | 68 | 255 | 0.0 | 0.0 | 0.00 | 0.00 | 0.00 | 59 | 1022.0 |
| 20260906074509 | 69 | 255 | 0.0 | 0.0 | 0.00 | 0.00 | 0.00 | 57 | 1021.9 |
| 20260906074007 | 69 | 255 | 0.0 | 0.0 | 0.00 | 0.00 | 0.00 | 56 | 1021.5 |
| 20260906073502 | 69 | 265 | 0.0 | 0.0 | 0.00 | 0.00 | 0.00 | 57 | 1021.8 |
| 20260906072958 | 69 | 8 | 2.0 | 2.0 | 0.00 | 0.00 | 0.00 | 57 | 1021.4 |
| 20260906072453 | 69 | 253 | 0.0 | 0.0 | 0.00 | 0.00 | 0.00 | 57 | 1021.4 |
| 20260906071949 | 69 | 262 | 0.0 | 0.0 | 0.00 | 0.00 | 0.00 | 56 | 1021.4 |
| 20260906071445 | 70 | 248 | 0.0 | 0.0 | 0.00 | 0.00 | 0.00 | 55 | 1021.2 |
| 20260906070940 | 70 | 249 | 0.0 | 0.0 | 0.00 | 0.00 | 0.00 | 54 | 1021.2 |
| 20260906070437 | 70 | 234 | 1.0 | 1.0 | 0.00 | 0.00 | 0.00 | 53 | 1021.1 |
| 20260906065932 | 71 | 239 | 0.0 | 1.0 | 0.00 | 0.00 | 0.00 | 52 | 1020.9 |
| 20260906065426 | 71 | 238 | 1.0 | 2.0 | 0.00 | 0.00 | 0.00 | 52 | 1021.1 |
| 20260906064922 | 71 | 245 | 2.0 | 3.0 | 0.00 | 0.00 | 0.00 | 51 | 1021.1 |
| 20260906064418 | 72 | 208 | 3.0 | 5.0 | 0.00 | 0.00 | 0.00 | 51 | 1020.7 |
| 20260906063918 | 72 | 223 | 3.0 | 5.0 | 0.00 | 0.00 | 0.00 | 50 | 1020.9 |
| 20260906063413 | 73 | 246 | 2.0 | 2.0 | 0.00 | 0.00 | 0.00 | 49 | 1020.9 |
| 20260906062908 | 73 | 241 | 3.0 | 5.0 | 0.00 | 0.00 | 0.00 | 49 | 1021.1 |
| 20260906062408 | 73 | 252 | 1.0 | 1.0 | 0.00 | 0.00 | 0.00 | 48 | 1020.9 |
| 20260906061904 | 72 | 263 | 1.0 | 2.0 | 0.00 | 0.00 | 0.00 | 50 | 1021.1 |
| 20260906061400 | 71 | 183 | 3.0 | 3.0 | 0.00 | 0.00 | 0.00 | 54 | 1021.2 |
| 20260906060854 | 71 | 260 | 0.0 | 1.0 | 0.00 | 0.00 | 0.00 | 56 | 1021.2 |
| 20260906060352 | 71 | 264 | 1.0 | 5.0 | 0.00 | 0.00 | 0.00 | 57 | 1021.5 |
| 20260906055847 | 73 | 246 | 3.0 | 5.0 | 0.00 | 0.00 | 0.00 | 50 | 1021.8 |
| 20260906055343 | 75 | 259 | 1.0 | 2.0 | 0.00 | 0.00 | 0.00 | 46 | 1022.2 |
| 20260906054838 | 76 | 215 | 1.0 | 2.0 | 0.00 | 0.00 | 0.00 | 39 | 1022.2 |
| 20260906054333 | 76 | 300 | 3.0 | 6.0 | 0.00 | 0.00 | 0.00 | 39 | 1021.9 |
| 20260906053829 | 76 | 254 | 2.0 | 2.0 | 0.00 | 0.00 | 0.00 | 39 | 1021.9 |
| 20260906053325 | 76 | 246 | 1.0 | 1.0 | 0.00 | 0.00 | 0.00 | 40 | 1021.5 |
| 20260906052820 | 75 | 251 | 1.0 | 2.0 | 0.00 | 0.00 | 0.00 | 40 | 1021.5 |
| 20260906052316 | 75 | 255 | 0.0 | 0.0 | 0.00 | 0.00 | 0.00 | 40 | 1021.5 |
| 20260906051814 | 74 | 257 | 0.0 | 0.0 | 0.00 | 0.00 | 0.00 | 41 | 1021.4 |
| 20260906051313 | 74 | 263 | 0.0 | 0.0 | 0.00 | 0.00 | 0.00 | 41 | 1021.6 |
| 20260906050808 | 74 | 265 | 1.0 | 1.0 | 0.00 | 0.00 | 0.00 | 41 | 1021.8 |
| 20260906050303 | 74 | 252 | 0.0 | 0.0 | 0.00 | 0.00 | 0.00 | 41 | 1022.0 |
| 20260906045802 | 74 | 235 | 0.0 | 1.0 | 0.00 | 0.00 | 0.00 | 41 | 1021.9 |
| 20260906045256 | 74 | 236 | 0.0 | 0.0 | 0.00 | 0.00 | 0.00 | 40 | 1021.9 |
| 20260906044753 | 74 | 236 | 0.0 | 1.0 | 0.00 | 0.00 | 0.00 | 41 | 1021.8 |
| 20260906044247 | 74 | 239 | 0.0 | 1.0 | 0.00 | 0.00 | 0.00 | 42 | 1021.9 |
| 20260906043743 | 74 | 250 | 0.0 | 0.0 | 0.00 | 0.00 | 0.00 | 40 | 1022.0 |
| 20260906043239 | 75 | 253 | 0.0 | 0.0 | 0.00 | 0.00 | 0.00 | 40 | 1022.1 |
| 20260906042739 | 75 | 253 | 0.0 | 0.0 | 0.00 | 0.00 | 0.00 | 39 | 1022.1 |
| 20260906042238 | 76 | 255 | 0.0 | 0.0 | 0.00 | 0.00 | 0.00 | 37 | 1022.1 |
| 20260906041733 | 77 | 256 | 0.0 | 0.0 | 0.00 | 0.00 | 0.00 | 36 | 1022.4 |
| 20260906041229 | 76 | 116 | 2.0 | 2.0 | 0.00 | 0.00 | 0.00 | 36 | 1022.0 |
| 20260906040724 | 76 | 349 | 2.0 | 3.0 | 0.00 | 0.00 | 0.00 | 36 | 1021.9 |
| 20260906040219 | 77 | 304 | 0.0 | 1.0 | 0.00 | 0.00 | 0.00 | 36 | 1021.9 |
| 20260906035715 | 77 | 73 | 3.0 | 3.0 | 0.00 | 0.00 | 0.00 | 36 | 1021.9 |
| 20260906035210 | 76 | 299 | 0.0 | 1.0 | 0.00 | 0.00 | 0.00 | 36 | 1021.9 |
| 20260906034710 | 75 | 69 | 3.0 | 3.0 | 0.00 | 0.00 | 0.00 | 37 | 1021.4 |
| 20260906034205 | 75 | 279 | 0.0 | 0.0 | 0.00 | 0.00 | 0.00 | 37 | 1021.3 |
| 20260906033701 | 76 | 275 | 0.0 | 0.0 | 0.00 | 0.00 | 0.00 | 37 | 1021.1 |
| 20260906033200 | 76 | 275 | 0.0 | 0.0 | 0.00 | 0.00 | 0.00 | 37 | 1021.1 |
| 20260906032657 | 76 | 275 | 0.0 | 0.0 | 0.00 | 0.00 | 0.00 | 36 | 1021.2 |
| 20260906032152 | 77 | 275 | 0.0 | 0.0 | 0.00 | 0.00 | 0.00 | 36 | 1021.2 |
| 20260906031647 | 77 | 275 | 0.0 | 0.0 | 0.00 | 0.00 | 0.00 | 35 | 1020.9 |
| 20260906031143 | 78 | 275 | 0.0 | 0.0 | 0.00 | 0.00 | 0.00 | 34 | 1020.7 |
| 20260906030642 | 78 | 275 | 0.0 | 0.0 | 0.00 | 0.00 | 0.00 | 34 | 1020.8 |
| 20260906030137 | 78 | 276 | 0.0 | 1.0 | 0.00 | 0.00 | 0.00 | 34 | 1020.7 |
| 20260906025637 | 79 | 262 | 0.0 | 0.0 | 0.00 | 0.00 | 0.00 | 33 | 1020.6 |
| 20260906025136 | 80 | 261 | 0.0 | 0.0 | 0.00 | 0.00 | 0.00 | 33 | 1020.5 |
| 20260906024630 | 80 | 263 | 1.0 | 2.0 | 0.00 | 0.00 | 0.00 | 32 | 1020.7 |
| 20260906024125 | 80 | 272 | 1.0 | 1.0 | 0.00 | 0.00 | 0.00 | 32 | 1020.5 |
| 20260906023621 | 81 | 275 | 0.0 | 1.0 | 0.00 | 0.00 | 0.00 | 31 | 1020.6 |
| 20260906023120 | 81 | 266 | 1.0 | 1.0 | 0.00 | 0.00 | 0.00 | 31 | 1020.3 |
| 20260906022616 | 81 | 262 | 1.0 | 1.0 | 0.00 | 0.00 | 0.00 | 31 | 1020.3 |
| 20260906022111 | 81 | 272 | 1.0 | 2.0 | 0.00 | 0.00 | 0.00 | 30 | 1020.6 |
| 20260906021607 | 82 | 263 | 2.0 | 2.0 | 0.00 | 0.00 | 0.00 | 30 | 1020.5 |
| 20260906021106 | 82 | 261 | 2.0 | 2.0 | 0.00 | 0.00 | 0.00 | 29 | 1020.2 |
| 20260906020605 | 83 | 264 | 1.0 | 1.0 | 0.00 | 0.00 | 0.00 | 29 | 1020.1 |
| 20260906020100 | 83 | 262 | 2.0 | 3.0 | 0.00 | 0.00 | 0.00 | 28 | 1020.1 |
| 20260906015600 | 83 | 244 | 4.0 | 5.0 | 0.00 | 0.00 | 0.00 | 28 | 1020.0 |
| 20260906015059 | 83 | 265 | 0.0 | 1.0 | 0.00 | 0.00 | 0.00 | 30 | 1019.8 |
| 20260906014554 | 84 | 262 | 0.0 | 0.0 | 0.00 | 0.00 | 0.00 | 29 | 1019.8 |
| 20260906014050 | 84 | 258 | 0.0 | 0.0 | 0.00 | 0.00 | 0.00 | 28 | 1019.6 |
| 20260906013545 | 84 | 246 | 0.0 | 0.0 | 0.00 | 0.00 | 0.00 | 28 | 1019.5 |
| 20260906013041 | 84 | 264 | 0.0 | 0.0 | 0.00 | 0.00 | 0.00 | 27 | 1019.3 |
| 20260906012535 | 84 | 269 | 0.0 | 1.0 | 0.00 | 0.00 | 0.00 | 29 | 1019.4 |
| 20260906012035 | 84 | 253 | 0.0 | 0.0 | 0.00 | 0.00 | 0.00 | 29 | 1019.4 |
| 20260906011531 | 85 | 257 | 0.0 | 0.0 | 0.00 | 0.00 | 0.00 | 29 | 1019.6 |
| 20260906011031 | 86 | 265 | 0.0 | 0.0 | 0.00 | 0.00 | 0.00 | 29 | 1019.4 |
| 20260906010526 | 86 | 247 | 0.0 | 0.0 | 0.00 | 0.00 | 0.00 | 28 | 1019.4 |
| 20260906010023 | 87 | 249 | 0.0 | 0.0 | 0.00 | 0.00 | 0.00 | 27 | 1019.4 |
| 20260906005521 | 87 | 277 | 1.0 | 1.0 | 0.00 | 0.00 | 0.00 | 26 | 1019.5 |
| 20260906005020 | 88 | 237 | 1.0 | 1.0 | 0.00 | 0.00 | 0.00 | 25 | 1019.8 |
| 20260906004515 | 89 | 230 | 1.0 | 1.0 | 0.00 | 0.00 | 0.00 | 24 | 1019.6 |
| 20260906004010 | 90 | 254 | 0.0 | 0.0 | 0.00 | 0.00 | 0.00 | 23 | 1019.3 |
| 20260906003505 | 91 | 234 | 0.0 | 0.0 | 0.00 | 0.00 | 0.00 | 23 | 1019.5 |
| 20260906003001 | 91 | 234 | 1.0 | 1.0 | 0.00 | 0.00 | 0.00 | 22 | 1019.4 |
| 20260906002500 | 92 | 224 | 1.0 | 1.0 | 0.00 | 0.00 | 0.00 | 22 | 1019.4 |
| 20260906001955 | 92 | 245 | 0.0 | 0.0 | 0.00 | 0.00 | 0.00 | 21 | 1019.3 |
| 20260906001451 | 93 | 230 | 0.0 | 1.0 | 0.00 | 0.00 | 0.00 | 21 | 1019.5 |
| 20260906000946 | 94 | 231 | 0.0 | 0.0 | 0.00 | 0.00 | 0.00 | 21 | 1019.2 |
| 20260906000441 | 93 | 248 | 0.0 | 1.0 | 0.00 | 0.00 | 0.00 | 20 | 1019.3 |
| 20260905235936 | 93 | 248 | 3.0 | 3.0 | 0.00 | 0.00 | 0.00 | 21 | 1019.0 |
| 20260905235436 | 92 | 229 | 1.0 | 1.0 | 0.00 | 0.00 | 0.00 | 21 | 1019.0 |
| 20260905234931 | 92 | 245 | 1.0 | 1.0 | 0.00 | 0.00 | 0.00 | 21 | 1018.9 |
| 20260905234426 | 92 | 252 | 0.0 | 1.0 | 0.00 | 0.00 | 0.00 | 21 | 1019.2 |
| 20260905233920 | 92 | 243 | 0.0 | 0.0 | 0.00 | 0.00 | 0.00 | 21 | 1019.2 |
| 20260905233416 | 92 | 255 | 0.0 | 0.0 | 0.00 | 0.00 | 0.00 | 21 | 1019.3 |
| 20260905232915 | 92 | 255 | 1.0 | 2.0 | 0.00 | 0.00 | 0.00 | 21 | 1019.3 |
| 20260905232411 | 93 | 247 | 1.0 | 2.0 | 0.00 | 0.00 | 0.00 | 22 | 1019.2 |
| 20260905231906 | 93 | 253 | 1.0 | 1.0 | 0.00 | 0.00 | 0.00 | 21 | 1019.3 |
| 20260905231402 | 93 | 242 | 1.0 | 1.0 | 0.00 | 0.00 | 0.00 | 20 | 1019.2 |
| 20260905230859 | 92 | 232 | 1.0 | 1.0 | 0.00 | 0.00 | 0.00 | 21 | 1019.0 |
| 20260905230350 | 93 | 281 | 2.0 | 2.0 | 0.00 | 0.00 | 0.00 | 21 | 1019.4 |
| 20260905225849 | 93 | 251 | 0.0 | 1.0 | 0.00 | 0.00 | 0.00 | 21 | 1019.2 |
| 20260905225344 | 92 | 255 | 1.0 | 1.0 | 0.00 | 0.00 | 0.00 | 21 | 1019.0 |
| 20260905224839 | 93 | 265 | 0.0 | 1.0 | 0.00 | 0.00 | 0.00 | 20 | 1019.0 |
| 20260905224335 | 93 | 268 | 1.0 | 1.0 | 0.00 | 0.00 | 0.00 | 20 | 1019.3 |
| 20260905223829 | 93 | 249 | 0.0 | 0.0 | 0.00 | 0.00 | 0.00 | 20 | 1018.9 |
| 20260905223327 | 94 | 264 | 3.0 | 6.0 | 0.00 | 0.00 | 0.00 | 20 | 1019.0 |
| 20260905222822 | 95 | 262 | 2.0 | 2.0 | 0.00 | 0.00 | 0.00 | 19 | 1019.2 |
| 20260905222321 | 94 | 253 | 1.0 | 2.0 | 0.00 | 0.00 | 0.00 | 20 | 1019.0 |
| 20260905221817 | 95 | 243 | 0.0 | 1.0 | 0.00 | 0.00 | 0.00 | 20 | 1019.2 |
| 20260905221314 | 94 | 231 | 0.0 | 0.0 | 0.00 | 0.00 | 0.00 | 20 | 1019.3 |
| 20260905220809 | 91 | 269 | 0.0 | 1.0 | 0.00 | 0.00 | 0.00 | 21 | 1018.9 |
| 20260905220306 | 91 | 289 | 2.0 | 2.0 | 0.00 | 0.00 | 0.00 | 21 | 1019.3 |
| 20260905215804 | 93 | 255 | 3.0 | 3.0 | 0.00 | 0.00 | 0.00 | 21 | 1019.4 |
| 20260905215300 | 94 | 256 | 2.0 | 2.0 | 0.00 | 0.00 | 0.00 | 20 | 1019.2 |
| 20260905214756 | 96 | 252 | 0.0 | 0.0 | 0.00 | 0.00 | 0.00 | 19 | 1019.5 |
| 20260905214252 | 96 | 232 | 1.0 | 1.0 | 0.00 | 0.00 | 0.00 | 20 | 1019.5 |
| 20260905213747 | 95 | 254 | 1.0 | 1.0 | 0.00 | 0.00 | 0.00 | 19 | 1019.4 |